Wind_Speed
12 12 11 10 9 8 7 6 6 7 8 9 9 10 9 10 10 10 10 9 10 11 11 10 9 9 8 7 7 7 7 7 7 6 5 4 4 3 3 2 3 3 3
12 12 11 10 9 9 8 6 6 7 7 8 9 9 9 9 10 9 9 9 9 9 9 8 8 8 7 7 7 7 7 7 6 5 5 4 4 3 3 3 3 2 3
12 12 12 11 9 8 8 7 6 6 6 7 8 8 9 9 9 9 9 9 9 9 8 8 8 8 7 7 7 7 7 6 6 5 4 4 3 3 3 3 2 2 2
12 12 12 11 10 8 8 7 8 7 7 7 7 8 9 9 9 9 9 9 9 9 9 8 7 7 6 7 8 7 7 6 5 4 4 3 3 3 2 2 2 3 2
12 12 11 11 10 9 9 9 8 7 7 7 7 7 8 8 8 8 8 9 8 8 8 8 7 6 7 7 7 7 6 5 4 4 3 3 3 3 3 3 3 3 3
13 12 12 11 10 9 9 8 8 7 6 6 6 6 6 7 8 8 8 8 8 8 7 7 7 6 7 7 7 6 6 5 4 4 3 4 4 4 4 3 3 3 3
13 13 12 11 10 10 9 9 9 7 6 5 6 6 6 7 8 7 7 7 7 7 7 7 7 7 6 6 6 5 4 4 4 3 4 4 4 4 4 4 3 3 3
14 13 12 11 10 10 10 9 8 9 7 5 5 6 7 7 7 7 7 6 7 7 7 7 7 6 5 5 5 5 4 3 3 3 3 4 4 4 3 3 3 3 3
15 14 13 12 11 10 10 9 9 9 8 7 5 5 5 6 5 6 6 6 6 6 6 7 6 6 6 5 4 4 4 4 3 3 3 3 3 3 3 2 2 2 2
16 15 14 13 12 11 11 10 9 9 8 7 6 6 6 6 6 6 6 6 6 6 6 6 5 5 4 4 4 4 4 4 3 3 3 3 3 3 3 3 2 2 2
16 15 14 13 12 11 11 10 9 8 8 7 6 6 5 5 5 6 6 5 5 5 5 5 4 4 3 4 4 3 4 4 3 3 3 3 3 3 3 3 2 1 2
16 16 15 14 12 12 11 10 9 8 7 7 6 6 5 5 5 5 5 4 4 4 5 4 3 3 3 3 3 3 3 3 3 3 2 3 3 2 2 2 2 2 2
16 16 16 15 13 12 11 10 9 9 8 7 6 6 5 5 5 4 4 3 3 4 4 4 4 4 3 3 3 3 3 3 3 2 2 2 2 2 1 1 1 2 1
16 16 16 15 14 13 11 10 10 10 8 8 8 7 6 5 5 5 4 4 3 3 3 3 3 3 2 2 2 2 3 3 3 3 3 3 3 2 2 2 2 2 1
16 16 16 16 15 14 13 11 10 10 9 9 9 8 6 5 5 5 4 4 3 2 3 3 2 2 1 1 1 1 2 2 3 2 2 3 3 2 2 1 1 1 1
16 16 16 16 16 15 14 12 11 10 10 9 9 8 6 5 5 4 4 4 3 2 2 2 2 1 0 0 0 1 1 2 2 2 2 3 3 3 2 2 1 1 0
16 16 16 16 16 15 14 13 12 11 10 9 9 8 6 5 5 5 4 4 3 2 2 1 2 1 1 1 1 1 1 2 2 3 2 2 3 2 2 2 2 2 1
15 16 16 16 15 15 14 13 13 11 10 9 8 8 6 5 5 5 4 4 3 2 2 2 2 2 2 1 1 1 1 2 3 3 3 2 2 2 3 2 2 2 2
15 15 15 16 15 15 15 13 12 12 11 10 8 8 7 6 5 5 5 5 4 3 3 2 2 1 1 1 1 1 2 3 3 3 2 3 3 3 4 3 3 3 3
15 15 15 15 15 15 15 13 12 11 11 10 9 8 8 7 6 5 5 5 4 3 3 3 2 1 1 1 2 2 2 2 3 3 3 3 3 4 4 4 4 4 4
14 14 14 14 14 14 14 14 12 10 10 10 9 8 8 7 6 5 5 5 4 4 4 3 3 2 2 2 1 2 3 3 3 3 3 3 3 4 4 4 5 5 5
14 14 14 14 14 14 14 14 13 11 10 10 9 8 8 7 6 5 5 5 5 5 5 4 3 2 2 2 2 2 3 3 4 4 4 4 4 4 4 5 5 5 5
14 14 14 14 14 14 14 13 13 12 10 10 10 9 8 8 7 6 6 6 6 5 4 4 3 3 2 3 3 4 4 4 4 4 5 4 4 4 5 6 6 6 5
14 14 14 15 15 14 13 12 12 12 11 10 10 10 9 9 8 7 7 6 6 5 5 5 4 4 3 3 4 5 5 4 4 4 4 5 5 5 5 6 6 6 6
14 13 14 15 14 13 13 12 12 12 11 10 10 10 9 9 8 7 7 6 6 5 5 5 4 4 4 5 5 6 6 5 6 5 6 6 6 6 6 7 7 7 8
13 14 14 14 14 13 12 12 11 11 11 10 10 9 9 9 8 8 8 7 7 6 6 6 5 5 5 6 6 7 7 6 6 6 6 7 7 7 7 7 8 8 9
Wind_Direction
49 49 49 48 48 54 58 72 87 97 98 99 106 107 109 114 116 118 119 126 130 131 126 124 123 118 115 117 122 126 129 133 128 117 113 115 114 107 109 108 110 110 111
47 48 46 43 43 50 51 58 81 96 99 99 102 103 103 109 112 113 112 114 120 122 123 121 121 116 113 115 120 121 121 131 123 111 102 104 105 100 99 104 106 119 117
46 44 44 42 40 43 46 57 77 90 95 100 102 102 104 107 109 115 112 111 113 115 118 118 120 119 120 123 123 117 113 116 114 105 100 97 99 97 92 98 99 112 114
44 42 40 39 37 39 44 55 64 86 93 92 95 96 99 99 98 107 111 114 116 116 118 116 115 113 120 124 118 111 109 103 100 100 98 102 101 88 81 89 89 109 104
44 39 37 38 39 41 41 45 54 79 92 92 93 95 102 99 99 104 109 113 112 110 110 109 107 108 121 120 114 110 108 100 96 96 86 83 86 77 78 83 90 103 103
43 39 38 38 38 41 41 43 54 68 75 76 82 85 90 93 100 109 111 110 112 111 109 102 100 108 119 114 110 106 104 101 85 77 73 76 77 76 76 84 93 99 103
43 40 38 38 38 40 42 45 49 56 65 72 81 86 88 97 103 103 106 112 114 112 109 105 105 112 112 111 106 100 98 94 79 72 67 68 77 73 78 90 84 94 101
42 40 37 37 37 38 40 42 43 43 48 60 77 94 96 95 96 96 102 108 112 111 109 103 102 106 102 106 105 93 87 85 78 80 65 59 62 71 77 88 85 93 100
42 41 39 37 38 38 37 41 44 42 42 48 61 81 80 83 87 94 96 100 104 109 108 102 97 96 101 102 100 92 85 80 77 71 65 56 57 67 65 78 86 98 109
40 39 39 37 38 37 37 39 44 45 41 41 48 57 67 72 76 84 89 95 104 110 108 97 96 94 102 99 95 83 77 76 67 62 64 63 64 68 68 78 85 91 123
38 37 37 35 35 33 35 38 41 43 45 45 47 47 54 62 67 73 82 92 101 106 105 99 94 85 84 93 93 87 74 76 57 57 56 64 62 67 76 75 64 74 118
35 34 33 30 32 32 33 34 36 38 42 43 43 40 41 50 58 67 75 88 96 102 102 97 91 82 82 79 79 81 67 73 71 54 56 57 61 67 81 81 54 81 125
34 32 30 28 28 29 30 30 31 34 35 36 37 37 34 37 46 49 58 57 72 88 93 90 85 78 88 83 79 75 67 77 66 45 41 64 68 54 52 74 61 73 105
31 29 29 26 27 27 27 28 31 34 31 31 35 33 34 38 40 41 42 38 47 71 81 78 76 79 82 80 80 68 66 70 57 45 53 60 59 54 41 46 76 70 89
29 28 28 26 26 26 26 28 32 31 30 34 36 33 35 39 36 38 41 37 42 65 82 71 67 60 64 76 61 62 66 51 39 35 41 39 30 23 18 25 35 73 111
27 27 28 26 26 25 24 27 31 29 25 27 31 31 34 34 28 26 34 32 33 44 53 46 39 45 24 324 6 45 39 15 14 12 13 15 15 10 16 15 26 4 261
23 23 24 24 24 23 22 24 26 26 23 23 26 30 31 31 25 17 14 14 19 18 7 355 352 16 348 298 288 353 357 337 335 331 337 348 353 351 351 353 347 337 324
19 19 19 19 20 19 20 23 25 23 19 19 22 24 25 25 20 11 5 359 356 351 340 331 337 342 328 303 296 305 322 335 332 324 318 321 318 320 322 314 322 320 325
14 15 16 15 15 17 18 18 18 18 18 16 18 18 21 16 15 9 0 356 352 343 338 314 302 306 327 320 299 302 311 326 329 327 310 311 302 302 308 306 300 293 302
9 10 12 10 11 12 13 12 12 15 16 15 17 20 22 20 14 5 0 1 354 338 332 318 305 311 334 332 306 307 308 315 323 335 325 303 296 303 310 304 301 294 288
4 4 4 5 7 7 8 7 8 9 10 13 14 16 19 19 16 6 3 4 355 340 335 329 329 319 296 296 302 312 308 315 322 328 328 311 289 288 297 302 300 293 285
0 1 0 358 1 2 3 4 6 6 8 9 11 13 14 14 13 9 1 356 350 340 328 331 325 313 318 322 307 307 305 315 320 326 327 318 303 296 299 298 298 295 291
355 356 356 355 355 356 357 359 1 359 1 4 4 5 7 7 5 4 356 350 351 353 345 351 350 334 332 332 320 305 303 308 319 318 316 318 317 311 303 296 294 291 289
349 351 352 352 352 352 351 353 356 353 358 1 1 357 356 355 353 355 355 351 342 351 359 354 338 332 321 319 313 307 297 298 313 309 313 318 317 311 309 306 307 306 302
341 344 346 347 349 350 350 351 354 353 355 357 357 354 353 353 353 356 354 352 350 347 348 347 335 327 319 314 309 305 301 296 298 302 304 307 309 309 308 306 302 301 298
335 338 340 342 342 345 348 349 351 350 351 352 355 354 351 350 349 350 349 349 353 349 341 331 325 325 318 310 303 302 299 293 293 295 303 307 309 307 305 304 301 299 298
Height
5885 5883 5882 5881 5880 5879 5878 5877 5877 5877 5877 5876 5876 5876 5877 5877 5877 5878 5878 5879 5880 5880 5881 5882 5883 5884 5885 5885 5886 5887 5888 5889 5890 5891 5891 5892 5892 5893 5893 5893 5894 5894 5894
5887 5885 5884 5883 5882 5881 5880 5879 5879 5878 5879 5879 5879 5878 5878 5879 5879 5880 5880 5880 5881 5882 5883 5884 5885 5885 5886 5887 5888 5888 5889 5890 5891 5891 5892 5893 5893 5894 5894 5894 5895 5895 5895
5889 5887 5886 5885 5884 5883 5882 5881 5880 5880 5880 5880 5880 5880 5880 5880 5881 5881 5882 5882 5883 5884 5884 5885 5886 5887 5888 5888 5889 5889 5890 5891 5891 5892 5893 5893 5894 5894 5895 5895 5895 5896 5896
5891 5889 5888 5887 5886 5885 5884 5883 5882 5881 5881 5882 5882 5882 5882 5882 5882 5883 5883 5884 5885 5885 5886 5887 5887 5888 5889 5889 5890 5891 5891 5892 5892 5893 5894 5894 5894 5895 5895 5896 5896 5896 5896
5892 5891 5890 5889 5888 5887 5886 5885 5884 5883 5883 5883 5883 5883 5883 5884 5884 5884 5885 5885 5886 5887 5887 5888 5889 5889 5890 5891 5891 5892 5893 5893 5894 5894 5895 5895 5894 5895 5896 5896 5896 5897 5897
5895 5893 5892 5891 5890 5889 5888 5887 5886 5885 5885 5885 5885 5885 5885 5885 5886 5886 5887 5887 5888 5888 5889 5889 5890 5890 5891 5892 5892 5893 5894 5894 5895 5895 5896 5896 5896 5896 5896 5897 5897 5897 5897
5897 5895 5894 5893 5892 5891 5890 5889 5888 5888 5887 5887 5887 5887 5887 5887 5887 5888 5888 5889 5889 5890 5890 5891 5891 5892 5892 5893 5894 5894 5895 5895 5896 5897 5897 5897 5897 5897 5897 5897 5898 5897 5898
5899 5897 5896 5895 5894 5893 5892 5891 5890 5890 5889 5889 5889 5889 5889 5889 5889 5890 5890 5890 5891 5891 5892 5892 5893 5893 5894 5894 5895 5895 5896 5896 5897 5898 5898 5898 5897 5898 5898 5898 5898 5898 5898
5901 5900 5898 5897 5896 5895 5894 5893 5892 5892 5891 5891 5891 5891 5891 5891 5891 5891 5891 5892 5892 5893 5893 5894 5894 5895 5895 5895 5896 5896 5897 5897 5897 5898 5898 5898 5898 5898 5898 5898 5899 5899 5899
5904 5902 5901 5899 5898 5897 5896 5895 5894 5894 5893 5893 5893 5892 5892 5892 5892 5893 5893 5893 5894 5894 5894 5895 5895 5896 5896 5897 5897 5897 5898 5898 5898 5898 5898 5898 5899 5899 5899 5899 5899 5899 5900
5906 5905 5903 5901 5900 5899 5898 5897 5896 5896 5895 5894 5894 5894 5894 5894 5894 5894 5894 5894 5895 5895 5895 5896 5896 5897 5897 5897 5898 5898 5898 5898 5899 5899 5899 5899 5899 5899 5899 5899 5900 5900 5900
5909 5907 5905 5904 5902 5901 5900 5899 5898 5897 5896 5896 5895 5895 5895 5895 5895 5895 5895 5895 5896 5896 5896 5897 5897 5897 5898 5898 5899 5899 5898 5899 5899 5899 5900 5899 5900 5900 5900 5900 5900 5900 5900
5911 5909 5908 5906 5904 5903 5902 5900 5899 5898 5898 5898 5897 5896 5896 5896 5896 5896 5896 5896 5897 5897 5897 5898 5898 5898 5899 5899 5900 5900 5900 5900 5900 5900 5900 5900 5900 5900 5900 5901 5901 5901 5901
5914 5912 5910 5908 5906 5905 5903 5902 5901 5900 5900 5899 5898 5898 5897 5897 5898 5898 5898 5898 5898 5898 5898 5899 5899 5899 5899 5900 5900 5900 5900 5900 5900 5900 5900 5900 5900 5901 5901 5901 5901 5901 5901
5916 5914 5912 5910 5908 5907 5905 5904 5903 5902 5900 5899 5899 5899 5898 5898 5899 5899 5898 5898 5898 5899 5899 5899 5899 5899 5900 5900 5900 5900 5900 5901 5901 5901 5901 5901 5901 5901 5901 5901 5901 5901 5901
5918 5916 5914 5912 5910 5909 5907 5906 5905 5904 5902 5901 5900 5900 5899 5899 5899 5899 5899 5899 5899 5899 5899 5899 5900 5900 5900 5900 5900 5900 5901 5901 5901 5901 5901 5901 5901 5901 5901 5901 5901 5901 5901
5920 5918 5916 5914 5912 5911 5909 5907 5906 5905 5903 5902 5901 5901 5900 5900 5900 5900 5900 5900 5900 5900 5900 5900 5900 5900 5900 5900 5901 5901 5901 5901 5901 5901 5901 5901 5901 5901 5901 5901 5901 5901 5901
5921 5920 5918 5916 5914 5912 5910 5909 5908 5906 5905 5903 5902 5902 5901 5901 5901 5900 5901 5900 5900 5900 5900 5900 5900 5900 5900 5900 5900 5901 5901 5901 5900 5901 5901 5901 5901 5901 5901 5901 5901 5901 5901
5923 5921 5919 5918 5916 5914 5912 5910 5909 5907 5906 5905 5903 5902 5902 5901 5901 5901 5901 5900 5900 5900 5900 5900 5900 5900 5900 5900 5900 5900 5901 5901 5900 5900 5900 5900 5900 5901 5901 5901 5900 5900 5900
5924 5922 5921 5919 5917 5915 5913 5911 5910 5908 5907 5905 5904 5903 5902 5902 5901 5901 5901 5900 5900 5900 5900 5900 5900 5900 5900 5900 5900 5900 5900 5900 5900 5900 5900 5899 5899 5900 5900 5900 5899 5899 5899
5925 5923 5921 5920 5918 5916 5914 5912 5911 5909 5908 5906 5905 5904 5903 5902 5902 5901 5901 5900 5900 5900 5900 5900 5900 5900 5900 5900 5900 5900 5900 5900 5900 5900 5899 5899 5899 5899 5899 5898 5898 5898 5897
5925 5923 5922 5920 5918 5917 5915 5913 5911 5910 5908 5907 5906 5904 5903 5903 5902 5901 5901 5901 5900 5900 5899 5899 5899 5899 5899 5899 5899 5900 5900 5900 5899 5899 5899 5898 5898 5898 5897 5897 5897 5897 5896
5925 5924 5922 5920 5918 5917 5915 5913 5912 5910 5909 5908 5906 5905 5904 5903 5902 5902 5901 5901 5900 5899 5899 5899 5899 5899 5899 5899 5899 5899 5899 5899 5898 5898 5898 5897 5897 5897 5896 5896 5895 5895 5895
5925 5924 5922 5920 5918 5916 5914 5913 5912 5910 5909 5908 5906 5905 5904 5903 5902 5901 5901 5900 5900 5899 5899 5899 5898 5898 5899 5899 5898 5898 5898 5898 5898 5897 5897 5897 5896 5896 5895 5895 5895 5894 5894
5925 5923 5921 5919 5918 5916 5914 5913 5911 5910 5909 5908 5906 5905 5904 5903 5902 5902 5901 5900 5900 5899 5898 5898 5898 5898 5898 5898 5898 5898 5897 5897 5897 5897 5896 5896 5895 5894 5894 5894 5893 5893 5893
5924 5923 5921 5919 5917 5915 5914 5912 5911 5910 5909 5907 5906 5905 5904 5903 5902 5902 5901 5900 5899 5899 5898 5898 5898 5897 5897 5897 5896 5896 5896 5896 5895 5895 5895 5894 5894 5893 5892 5892 5891 5891 5891